Lid_Strength_Index
2 2 2 2 2 2 2 2 1 1 1 1 1 1 1 2 2 3 2 2 3 3
1 2 2 2 3 1 2 1 1 1 1 1 1 1 2 2 3 2 2 3 4 4
1 1 1 3 5 2 2 1 1 1 1 1 1 1 2 3 3 3 3 4 4 4
1 2 1 4 4 1 2 1 1 1 1 2 3 2 2 3 4 3 4 5 5 6
1 2 2 3 1 1 1 1 1 1 2 3 3 2 3 4 5 5 5 6 7 7
2 2 2 1 1 0 1 1 1 2 2 3 3 3 4 5 5 6 7 7 6 7
2 2 1 1 1 1 1 1 2 2 3 3 5 4 5 5 6 7 6 5 6 6
2 1 1 1 1 1 2 1 1 2 3 4 5 4 5 5 5 6 6 6 5 4
3 2 1 2 3 2 1 1 2 4 6 6 4 2 2 4 4 5 5 7 7 6
3 3 3 4 3 2 2 3 6 8 8 7 5 2 1 2 5 5 5 6 6 6
4 4 5 5 4 3 4 5 7 8 8 8 6 2 2 1 4 5 6 6 6 6
4 4 4 4 4 5 5 5 6 8 8 8 6 3 2 4 5 6 6 6 5 6
4 4 4 3 5 4 4 5 6 8 9 7 7 4 4 5 5 5 5 5 6 3
4 4 3 4 4 4 5 6 7 8 8 8 7 6 5 4 7 6 7 7 5 4